Regional Weather Roundup
Issued by NWS

Home | Current Version | Previous Version | Graphics & Text | Print | Product List | Glossary On
Versions: 1 2 3 4 5 6 7 8 9 10 11 12 13 14 15 16 17 18 19 20 21 22 23 24 25 26 27 28 29 30 31 32 33 34 35 36 37 38 39 40 41 42 43 44 45 46 47 48 49 50
000
ASUS43 KIND 301509
RWRIN

WEATHER ROUNDUP FOR INDIANA
NATIONAL WEATHER SERVICE INDIANAPOLIS IN
1100 AM EDT TUE SEP 30 2014

NOTE: "FAIR" INDICATES FEW OR NO CLOUDS BELOW 12,000 FEET WITH NO
SIGNIFICANT WEATHER AND/OR OBSTRUCTIONS TO VISIBILITY.

* - STATION DOES NOT REPORT WEATHER SUCH AS PRECIPITATION OR FOG.

+ - STATION NOT QUALITY CONTROLLED BY THE NATIONAL WEATHER SERVICE.
    USE DATA WITH CAUTION...ESPECIALLY DEWPOINT AND RELATIVE
    HUMIDITY OBSERVATIONS.

INZ001>003-010>013-019-020-301600-
NORTHWEST INDIANA

CITY           SKY/WX    TMP DP  RH WIND       PRES   REMARKS
GARY /AIRPORT/ PTSUNNY   57  50  77 N14G25    30.05S
KNOX *+        CLOUDY    54  47  76 N10       30.01S
LA PORTE +     CLOUDY    55  53  91 N13G18    30.03S
MICHIGAN CITY+ PTSUNNY   54  45  71 N8G18     30.03S
MONTICELLO +   CLOUDY    56  49  79 N6        30.01S
RENSSELAER +   CLOUDY    55  50  82 N8        30.03S
VALPARAISO     CLOUDY    55  49  80 N9        30.03S

$$

LMZ046-743>745-301600-
SOUTHERN LAKE MICHIGAN

STATION/POSITION TIME  TEMP WIND        PRES
                       AIR  DIR/SP/G
                 (UTC) (F)  (DEG/KT/KT) (MB)
MICHIGAN CITY    1500   53  350/ 18/ 22   N/A

$$

INZ004-005-014>016-021>024-301600-
NORTH CENTRAL INDIANA

CITY           SKY/WX    TMP DP  RH WIND       PRES   REMARKS
ELKHART        CLOUDY    50  45  81 N9        30.02S
LOGANSPORT +   CLOUDY    54  46  76 N8        30.01S
PERU/GRISSOM   CLOUDY    54  53  95 N7        30.00S
ROCHESTER +    CLOUDY    55  46  71 N9        30.02S
SOUTH BEND     CLOUDY    54  45  71 N13       30.02S
WARSAW +       CLOUDY    50  45  81 NW5       30.02R

$$

INZ006>009-017-018-025>027-301600-
NORTHEAST INDIANA

CITY           SKY/WX    TMP DP  RH WIND       PRES   REMARKS
ANGOLA *+      CLOUDY    48  46  93 N8        30.00S
AUBURN +       CLOUDY    52  46  82 N8        30.00S
FORT WAYNE     CLOUDY    53  48  83 NW7       30.00S
HUNTINGTON +   CLOUDY    51  50  95 N8        30.00S FOG

$$

INZ028-029-035-036-043>045-051>053-301600-
WEST CENTRAL INDIANA

CITY           SKY/WX    TMP DP  RH WIND       PRES   REMARKS
GREENCASTLE +  PTSUNNY   61  55  82 NE6       29.99S
LAFAYETTE      CLOUDY    56  49  77 N8        30.01S
TERRE HAUTE    CLOUDY    59  55  87 VRB6      29.99S

$$

INZ030>032-037>040-046>048-054>057-064-065-301600-
CENTRAL INDIANA

CITY           SKY/WX    TMP DP  RH WIND       PRES   REMARKS
ANDERSON       CLOUDY    57  55  94 NW12      29.99S
CP ATTERBURY + CLOUDY    61  57  88 N6        29.98S FOG
FRANKFORT +    PTSUNNY   58  50  76 N8        30.01S
INDIANAPOLIS   PTSUNNY   60  54  80 N10       29.98S
-EAGLE CREEK   CLOUDY    60  53  77 NW7       29.98R
KOKOMO *+      CLOUDY    55  46  71 N9        30.01R
MARION +       CLOUDY    54  49  82 N8        30.00S
MT COMFORT *+  CLOUDY    59  57  94 N8        29.99R
SHELBYVILLE    CLOUDY    60  56  86 N9        29.97S
ZIONSVILLE +   CLOUDY    59  52  77 N8        29.99S

$$

INZ033-034-041-042-049-050-058-059-301600-
EAST CENTRAL INDIANA

CITY           SKY/WX    TMP DP  RH WIND       PRES   REMARKS
MUNCIE         CLOUDY    57  53  86 N9        29.98S

$$

INZ060-061-067>069-081>083-085>088-301600-
SOUTHWEST INDIANA

CITY           SKY/WX    TMP DP  RH WIND       PRES   REMARKS
EVANSVILLE     SUNNY     74  58  57 VRB3      29.97R
WASHINGTON +   SUNNY     68  59  73 N5        29.96S

$$

INZ062-063-066-070>080-084-089>092-301600-
SOUTH CENTRAL AND SOUTHEAST INDIANA

CITY           SKY/WX    TMP DP  RH WIND       PRES   REMARKS
BEDFORD +      SUNNY     68  57  68 CALM      29.96
BLOOMINGTON    CLOUDY    60  57  89 N7        29.98S FOG

$$



USA.gov is the U.S. government's official web portal to all federal, state and local government web resources and services.